• In Kazakhstan
  • List of Countries
  • For 7 days
  • Water Temperature
  • Satellite Maps
  • Weather Map
  • News
  • Weather Widgets
  • user-avatar
    Login

    Hourly Weather Wichita

    Today, 25 November, Saturday

    Time Temperature Precipitation Wind Pressure Humidity
    00:00 +15°C° 0 mm 5 mps 725 mmHg 44%
    01:00 +14°C° 0 mm 5 mps 725 mmHg 45%
    02:00 +13°C° 0 mm 5 mps 726 mmHg 46%
    03:00 +12°C° 0 mm 4 mps 726 mmHg 47%
    04:00 +11°C° 0 mm 4 mps 727 mmHg 50%
    05:00 +10°C° 0 mm 4 mps 727 mmHg 53%
    06:00 +8°C° 0 mm 3 mps 728 mmHg 56%
    07:00 +9°C° 0 mm 3 mps 729 mmHg 53%
    08:00 +10°C° 0 mm 3 mps 729 mmHg 50%
    09:00 +10°C° 0 mm 3 mps 730 mmHg 48%
    10:00 +12°C° 0 mm 3 mps 730 mmHg 42%
    11:00 +13°C° 0 mm 3 mps 731 mmHg 36%
    12:00 +16°C° 0 mm 3 mps 731 mmHg 30%
    13:00 +16°C° 0 mm 2 mps 731 mmHg 29%
    14:00 +17°C° 0 mm 2 mps 731 mmHg 27%
    15:00 +18°C° 0 mm 1 mps 731 mmHg 26%
    16:00 +15°C° 0 mm 1 mps 731 mmHg 29%
    17:00 +14°C° 0 mm 1 mps 731 mmHg 32%
    18:00 +11°C° 0 mm 0 mps 731 mmHg 35%
    19:00 +11°C° 0 mm 0 mps 731 mmHg 36%
    20:00 +11°C° 0 mm 1 mps 732 mmHg 37%
    21:00 +11°C° 0 mm 1 mps 732 mmHg 38%
    22:00 +10°C° 0 mm 1 mps 732 mmHg 40%
    23:00 +9°C° 0 mm 2 mps 732 mmHg 41%

    Tomorrow, 26 November, Sunday

    Time Temperature Precipitation Wind Pressure Humidity
    00:00 +9°C° 0 mm 2 mps 732 mmHg 42%
    01:00 +8°C° 0 mm 3 mps 732 mmHg 44%
    02:00 +8°C° 0 mm 3 mps 732 mmHg 46%
    03:00 +8°C° 0 mm 3 mps 732 mmHg 48%
    04:00 +7°C° 0 mm 3 mps 732 mmHg 50%
    05:00 +7°C° 0 mm 3 mps 732 mmHg 52%
    06:00 +7°C° 0 mm 3 mps 732 mmHg 54%
    07:00 +6°C° 0 mm 4 mps 732 mmHg 52%
    08:00 +7°C° 0 mm 5 mps 732 mmHg 50%
    09:00 +8°C° 0 mm 5 mps 732 mmHg 49%
    10:00 +10°C° 0 mm 6 mps 731 mmHg 45%
    11:00 +13°C° 0 mm 6 mps 731 mmHg 41%
    12:00 +15°C° 0 mm 6 mps 731 mmHg 37%
    13:00 +16°C° 0 mm 6 mps 730 mmHg 38%
    14:00 +17°C° 0 mm 6 mps 729 mmHg 39%
    15:00 +17°C° 0 mm 6 mps 728 mmHg 39%
    16:00 +16°C° 0 mm 6 mps 728 mmHg 45%
    17:00 +14°C° 0 mm 5 mps 728 mmHg 50%
    18:00 +13°C° 0 mm 4 mps 727 mmHg 56%
    19:00 +12°C° 0 mm 5 mps 727 mmHg 57%
    20:00 +12°C° 0 mm 5 mps 727 mmHg 59%
    21:00 +12°C° 0 mm 5 mps 727 mmHg 61%
    22:00 +10°C° 0 mm 5 mps 727 mmHg 63%
    23:00 +10°C° 0 mm 5 mps 727 mmHg 64%

    Day after tomorrow, 27 November, Monday

    Time Temperature Precipitation Wind Pressure Humidity
    00:00 +10°C° 0 mm 4 mps 726 mmHg 66%
    01:00 +10°C° 0 mm 4 mps 726 mmHg 68%
    02:00 +10°C° 0 mm 4 mps 726 mmHg 70%
    03:00 +10°C° 0 mm 4 mps 726 mmHg 72%
    04:00 +8°C° 0 mm 4 mps 725 mmHg 76%
    05:00 +8°C° 0 mm 5 mps 725 mmHg 79%
    06:00 +8°C° 0 mm 5 mps 725 mmHg 82%
    07:00 +9°C° 0 mm 5 mps 725 mmHg 80%
    08:00 +10°C° 0 mm 6 mps 725 mmHg 77%
    09:00 +11°C° 0 mm 7 mps 725 mmHg 75%
    10:00 +14°C° 0 mm 7 mps 724 mmHg 69%
    11:00 +16°C° 0 mm 8 mps 724 mmHg 62%
    12:00 +18°C° 0 mm 8 mps 723 mmHg 55%
    13:00 +19°C° 0 mm 9 mps 722 mmHg 54%
    14:00 +21°C° 0 mm 9 mps 722 mmHg 53%
    15:00 +22°C° 0 mm 9 mps 721 mmHg 52%
    16:00 +21°C° 0 mm 9 mps 720 mmHg 56%
    17:00 +19°C° 0 mm 9 mps 720 mmHg 60%
    18:00 +18°C° 0 mm 9 mps 719 mmHg 65%
    19:00 +18°C° 0 mm 10 mps 719 mmHg 65%
    20:00 +18°C° 0 mm 10 mps 719 mmHg 66%
    21:00 +17°C° 0 mm 11 mps 719 mmHg 66%
    22:00 +17°C° 0 mm 10 mps 719 mmHg 66%
    23:00 +17°C° 0 mm 10 mps 719 mmHg 67%

    28 November, Tuesday

    Time Temperature Precipitation Wind Pressure Humidity
    00:00 +17°C° 0 mm 9 mps 719 mmHg 67%
    01:00 +17°C° 0 mm 9 mps 719 mmHg 70%
    02:00 +16°C° 0 mm 9 mps 718 mmHg 72%
    03:00 +16°C° 0 mm 9 mps 718 mmHg 74%
    04:00 +16°C° 0 mm 8 mps 718 mmHg 77%
    05:00 +15°C° 0 mm 8 mps 719 mmHg 81%
    06:00 +15°C° 0 mm 7 mps 719 mmHg 84%
    07:00 +14°C° 0 mm 7 mps 720 mmHg 81%
    08:00 +14°C° 0 mm 7 mps 722 mmHg 77%
    09:00 +14°C° 0 mm 7 mps 723 mmHg 74%
    10:00 +13°C° 0 mm 8 mps 723 mmHg 66%
    11:00 +13°C° 0 mm 9 mps 724 mmHg 57%
    12:00 +13°C° 0 mm 10 mps 725 mmHg 49%
    13:00 +13°C° 0 mm 9 mps 725 mmHg 46%
    14:00 +13°C° 0 mm 9 mps 726 mmHg 43%
    15:00 +13°C° 0 mm 9 mps 726 mmHg 40%
    16:00 +12°C° 0 mm 8 mps 727 mmHg 40%
    17:00 +12°C° 0 mm 8 mps 728 mmHg 39%
    18:00 +11°C° 0 mm 7 mps 729 mmHg 38%
    19:00 +11°C° 0 mm 7 mps 729 mmHg 37%
    20:00 +10°C° 0 mm 7 mps 730 mmHg 36%
    21:00 +10°C° 0 mm 8 mps 730 mmHg 35%
    22:00 +10°C° 0 mm 8 mps 730 mmHg 35%
    23:00 +9°C° 0 mm 8 mps 730 mmHg 35%

    29 November, Wednesday

    Time Temperature Precipitation Wind Pressure Humidity
    00:00 +9°C° 0 mm 8 mps 730 mmHg 35%
    01:00 +9°C° 0.1 mm 7 mps 730 mmHg 37%
    02:00 +8°C° 0.1 mm 7 mps 730 mmHg 39%
    03:00 +8°C° 0.1 mm 7 mps 730 mmHg 41%
    04:00 +8°C° 0 mm 6 mps 730 mmHg 42%
    05:00 +7°C° 0 mm 6 mps 730 mmHg 44%
    06:00 +7°C° 0 mm 5 mps 729 mmHg 45%
    07:00 +7°C° 0 mm 5 mps 730 mmHg 46%
    08:00 +7°C° 0 mm 5 mps 730 mmHg 47%
    09:00 +7°C° 0 mm 5 mps 730 mmHg 48%
    10:00 +8°C° 0 mm 5 mps 730 mmHg 47%
    11:00 +10°C° 0 mm 4 mps 730 mmHg 46%
    12:00 +12°C° 0 mm 4 mps 730 mmHg 45%
    13:00 +12°C° 0 mm 4 mps 729 mmHg 45%
    14:00 +13°C° 0 mm 4 mps 729 mmHg 45%
    15:00 +14°C° 0 mm 3 mps 728 mmHg 46%
    16:00 +12°C° 0 mm 3 mps 729 mmHg 49%
    17:00 +11°C° 0 mm 3 mps 729 mmHg 52%
    18:00 +9°C° 0 mm 2 mps 729 mmHg 55%
    19:00 +9°C° 0 mm 2 mps 730 mmHg 55%
    20:00 +8°C° 0 mm 2 mps 730 mmHg 55%
    21:00 +7°C° 0 mm 2 mps 731 mmHg 56%
    22:00 +7°C° 0 mm 3 mps 732 mmHg 52%
    23:00 +7°C° 0 mm 3 mps 732 mmHg 48%

    30 November, Thursday

    Time Temperature Precipitation Wind Pressure Humidity
    00:00 +5°C° 0 mm 4 mps 733 mmHg 44%
    01:00 +6°C° 0 mm 5 mps 733 mmHg 43%
    02:00 +5°C° 0 mm 6 mps 734 mmHg 42%
    03:00 +5°C° 0 mm 6 mps 734 mmHg 40%
    04:00 +5°C° 0 mm 7 mps 735 mmHg 41%
    05:00 +5°C° 0 mm 7 mps 735 mmHg 42%
    06:00 +4°C° 0 mm 7 mps 736 mmHg 43%
    07:00 +4°C° 0 mm 7 mps 737 mmHg 44%
    08:00 +5°C° 0 mm 8 mps 737 mmHg 45%
    09:00 +5°C° 0 mm 8 mps 738 mmHg 46%
    10:00 +6°C° 0 mm 8 mps 738 mmHg 42%
    11:00 +8°C° 0 mm 7 mps 738 mmHg 37%
    12:00 +9°C° 0 mm 7 mps 738 mmHg 33%
    13:00 +9°C° 0 mm 6 mps 738 mmHg 31%
    14:00 +9°C° 0 mm 6 mps 738 mmHg 30%
    15:00 +10°C° 0 mm 5 mps 737 mmHg 28%
    16:00 +8°C° 0 mm 4 mps 737 mmHg 31%
    17:00 +7°C° 0 mm 3 mps 737 mmHg 35%
    18:00 +6°C° 0 mm 2 mps 737 mmHg 38%
    19:00 +5°C° 0 mm 2 mps 737 mmHg 40%
    20:00 +5°C° 0 mm 2 mps 737 mmHg 42%
    21:00 +4°C° 0 mm 2 mps 737 mmHg 43%
    22:00 +5°C° 0 mm 1 mps 737 mmHg 45%
    23:00 +5°C° 0 mm 1 mps 737 mmHg 46%
    Show more